Location: *
(28.3744°N, 81.5492°W)
Time: 03:51:57
(UTC+00:00)

Cosmos 614 Rocket - Pass Details

Date: 15 June 2025
Orbit: 729 x 757 km, 74.1° (Epoch: 11 July)

Event Time Altitude Azimuth Distance (km) Brightness Sun altitude
Exits shadow 02:00:35 - 197° (SSW) 3,006 6.8 -18.3°
Reaches altitude 10° 02:02:28 10° 198° (SSW) 2,271 6.2 -18.6°
Maximum altitude 02:07:37 81° 285° (WNW) 765 4.0 -19.5°
Drops below altitude 10° 02:12:47 10° 13° (NNE) 2,269 6.8 -20.3°
Sets 02:15:08 0° 15° (NNE) 3,192 7.6 -20.7°
